SCP
0 0 0 0 0 0 0 0 0 0 0 0 0 0 0 0 0 0 0 0 0 0 0 0 0 0 0 0 0 0 0 0 0 0 0 0 0 0 0 0 0 0 0
0 0 0 0 0 0 0 0 0 0 0 0 0 0 0 0 0 0 0 0 0 0 0 0 0 0 0 0 0 0 0 0 0 0 0 0 0 0 0 0 0 0 0
0 0 0 0 0 0 0 0 0 0 0 0 0 0 0 0 0 0 0 0 0 0 0 0 0 0 0 0 0 0 0 0 0 0 0 0 0 0 0 0 0 0 0
0 0 0 0 0 0 0 0 -0 0 0 0 0 0 0 0 0 0 0 0 0 0 0 0 0 0 0 0 0 0 0 0 0 0 0 0 0 0 0 0 0 0 0
0 0 0 0 0 0 0 -0 -0 -0 0 0 0 0 0 0 0 0 0 0 0 0 0 0 0 0 0 0 0 0 0 0 0 0 0 0 0 0 0 0 0 0 0
0 0 0 0 0 0 -0 -0 -0 0 0 0 0 0 0 0 0 0 0 0 0 0 0 0 0 0 0 0 0 0 0 0 0 0 0 0 0 0 0 0 0 0 0
0 0 0 0 0 0 -0 -0 -0 0 0 0 0 0 0 0 0 0 0 0 0 0 0 0 0 0 0 0 0 0 0 1 0 0 0 0 0 0 0 0 0 0 0
0 0 0 0 0 0 0 0 -0 -0 -0 0 0 0 0 0 0 0 0 0 0 0 0 0 0 0 0 0 0 0 0 0 0 0 0 0 0 0 0 0 0 0 0
0 0 0 0 0 0 0 0 0 -0 -0 -0 0 -0 0 0 0 0 0 0 0 0 0 0 0 0 0 0 0 0 0 0 0 0 0 0 0 0 0 0 0 0 0
0 0 0 0 0 0 0 0 0 0 0 0 -0 -0 0 0 0 0 0 0 0 0 0 0 0 0 0 0 0 0 0 0 0 0 0 0 0 0 0 0 0 0 0
0 0 0 0 0 0 0 0 0 0 0 0 0 0 0 0 0 0 0 0 0 0 0 0 0 0 0 0 0 0 0 0 0 0 0 0 0 0 0 0 0 0 0
0 0 0 0 0 0 0 0 0 0 0 -0 -0 -0 0 0 0 0 0 0 0 0 0 0 0 0 0 0 0 0 0 0 0 0 0 0 0 0 0 0 0 0 0
0 0 0 0 0 0 0 0 0 0 0 -0 -0 -0 -0 0 0 0 0 0 0 0 0 0 0 0 0 0 0 0 0 0 0 0 0 0 0 0 0 0 0 0 0
0 0 0 0 0 0 0 0 0 0 0 0 0 0 0 0 0 0 0 0 0 0 0 0 0 0 0 0 0 0 0 0 0 0 0 0 0 0 0 0 0 0 0
0 0 0 0 0 0 0 0 0 0 0 0 0 0 0 0 0 0 0 0 0 0 0 0 0 0 0 0 0 0 0 0 0 0 0 0 0 0 0 0 0 0 0
0 0 0 0 0 0 0 0 0 0 0 0 0 0 0 0 0 0 0 0 0 0 0 0 0 0 0 0 0 0 0 0 0 0 0 0 0 0 0 0 0 0 0
0 0 0 0 0 0 0 0 0 0 0 0 0 0 0 0 0 0 0 0 0 0 0 0 0 0 0 0 0 0 0 0 0 0 0 0 0 0 0 0 0 0 0
0 0 0 0 0 0 0 0 0 0 0 0 0 0 0 0 0 0 0 0 0 0 0 0 0 0 0 0 0 0 0 0 0 0 0 0 0 0 0 0 0 0 0
0 0 0 0 0 0 0 0 0 0 0 0 0 0 0 0 0 0 0 0 0 0 0 0 0 0 0 0 0 0 0 0 0 0 0 0 0 0 0 0 0 0 0
0 0 0 0 0 0 0 0 0 0 0 0 0 0 0 0 0 0 0 0 0 0 0 0 0 0 0 0 0 0 0 0 0 0 0 0 0 0 0 0 0 0 0
0 0 0 0 0 0 0 0 0 0 0 0 0 0 0 0 0 0 0 0 0 0 0 0 0 0 0 0 0 0 0 0 0 0 0 0 0 0 0 0 0 0 0
0 0 0 0 0 0 0 0 0 0 0 0 0 0 0 0 0 0 0 0 0 0 0 0 0 0 0 0 0 0 0 0 0 0 0 0 0 0 0 0 0 0 0
0 0 0 0 0 0 0 0 0 0 0 0 0 0 0 0 0 0 0 0 0 0 0 0 0 0 0 0 0 0 0 0 0 0 0 0 0 0 0 0 0 0 0
0 0 0 0 0 0 0 0 0 0 0 0 0 0 0 0 0 0 0 0 0 0 0 0 0 0 0 0 0 0 0 -0 0 0 0 0 0 0 0 0 0 0 0
0 0 0 0 0 0 0 0 0 0 0 0 0 0 0 0 0 0 0 0 0 0 0 0 0 0 0 0 0 0 0 0 0 0 0 0 0 0 0 0 0 0 0
0 0 0 0 0 0 0 0 0 0 0 0 0 0 0 0 0 0 0 0 0 0 0 0 0 0 0 0 0 0 0 0 0 0 0 0 0 0 0 0 0 0 0
Wind_Speed_500mb
11 5 2 6 10 14 17 18 19 20 20 20 20 21 21 22 21 20 19 19 19 17 15 19 15 13 18 21 19 21 20 21 19 17 15 17 18 19 17 11 9 8 8
9 3 3 6 11 14 17 19 21 21 21 20 20 19 19 19 19 18 16 16 19 18 18 18 19 20 18 24 24 19 17 22 22 19 15 15 17 16 16 12 10 9 8
12 8 6 8 12 16 20 22 22 21 20 19 17 16 15 14 12 11 11 10 12 20 25 26 25 24 20 20 27 26 22 19 20 19 16 14 15 16 15 13 10 10 9
16 11 8 9 13 18 22 23 24 24 24 21 19 15 10 5 7 12 15 16 15 13 12 20 26 24 22 21 23 30 30 18 20 21 18 14 14 14 14 13 9 9 7
17 13 10 9 14 19 22 26 29 30 28 24 19 16 15 16 16 14 13 14 16 16 14 13 14 15 19 22 21 25 32 23 20 18 16 17 15 14 13 12 8 8 8
18 12 9 9 14 19 25 30 33 34 33 29 18 14 7 12 19 16 14 10 14 16 15 15 13 13 15 17 15 18 25 27 21 20 18 15 17 16 12 11 8 8 8
19 13 8 9 14 17 25 30 33 35 36 36 21 14 13 11 18 18 15 16 21 24 23 22 21 19 16 15 17 17 21 26 23 19 19 15 16 16 14 10 8 6 9
21 15 10 9 12 17 21 27 33 38 41 42 37 21 7 5 28 3 15 31 34 26 22 23 21 21 19 16 15 16 20 23 29 26 18 18 19 15 16 12 10 8 9
25 17 11 7 10 13 18 26 31 35 39 40 40 27 11 10 20 18 22 26 31 26 27 22 20 16 16 15 16 17 19 22 22 27 26 19 18 15 14 15 12 11 10
30 21 14 6 5 10 16 24 29 31 33 36 38 37 30 24 12 16 27 36 43 31 33 24 19 19 15 12 10 13 15 17 21 22 28 25 21 19 11 15 15 12 12
36 27 18 9 2 7 13 20 25 28 31 32 32 32 31 27 27 14 23 34 34 31 31 33 20 20 17 15 10 11 16 20 21 23 26 29 27 22 13 14 16 14 12
42 32 22 12 4 3 9 16 22 26 29 31 32 31 29 24 22 20 29 43 39 36 22 5 31 22 18 17 19 16 19 21 23 23 27 26 27 35 15 14 14 15 15
48 37 26 16 8 3 9 15 20 23 27 30 32 33 33 30 31 27 28 35 39 37 22 14 18 19 16 25 26 27 23 23 22 22 25 24 26 38 27 14 13 16 17
46 38 28 18 9 5 8 13 18 22 25 28 30 32 32 33 33 30 26 31 43 29 30 41 24 17 43 36 26 28 30 28 26 23 22 29 23 33 38 14 13 17 22
48 40 31 21 13 9 8 11 16 21 25 28 30 32 34 35 36 35 32 23 23 33 46 29 26 35 45 41 31 26 29 30 30 29 25 25 31 27 41 16 16 17 24
53 44 35 25 17 12 8 8 13 18 24 29 33 35 35 38 40 36 33 28 26 29 43 36 46 51 53 47 35 29 31 29 31 28 28 25 31 32 39 27 19 17 24
56 46 37 29 21 17 11 7 11 18 28 35 38 40 41 41 42 39 37 34 31 31 48 56 46 45 54 45 44 34 30 27 29 31 29 28 33 37 45 35 25 23 27
57 46 39 33 27 22 15 12 13 20 32 41 44 46 46 46 48 47 42 43 40 41 44 59 51 45 41 38 41 41 32 28 26 29 30 26 28 33 41 38 32 30 28
55 48 44 37 31 28 23 17 19 26 36 45 49 50 50 51 51 50 50 50 46 42 41 47 56 44 39 38 37 37 34 28 23 26 28 23 27 29 38 41 34 31 29
55 50 45 39 36 32 24 21 26 32 41 51 57 58 57 54 53 52 53 56 52 45 42 48 51 48 42 38 37 34 28 22 24 21 23 26 27 25 34 41 37 30 26
55 49 46 43 40 35 27 27 29 37 47 58 66 67 62 57 55 55 56 56 54 44 45 51 55 51 46 39 34 31 35 33 24 20 20 20 25 26 39 42 37 33 26
58 55 48 47 45 39 33 32 36 43 55 68 74 68 63 61 59 60 55 53 55 57 57 52 56 54 47 38 35 35 35 34 20 12 17 18 21 30 35 41 39 32 28
63 56 52 53 49 39 34 38 44 50 64 74 75 68 65 63 64 61 58 60 58 49 50 55 60 58 58 50 39 35 38 31 30 30 21 21 19 28 34 38 37 36 27
62 59 58 55 45 40 40 41 48 59 72 77 71 66 68 67 62 57 56 56 51 52 54 48 49 48 52 52 46 43 39 46 46 36 33 28 23 24 37 45 41 37 30
64 59 57 50 43 42 41 45 55 67 74 72 70 68 68 64 57 49 55 58 63 57 56 50 46 46 45 41 54 43 42 39 47 45 41 34 33 29 37 45 45 39 33
57 51 52 48 41 38 42 49 62 71 72 73 71 66 64 59 51 47 57 64 68 61 52 54 56 53 48 45 40 53 48 47 45 39 49 45 42 36 30 43 47 44 39
Wind_Direction_500mb
165 157 24 2 9 6 4 0 353 350 340 332 323 314 306 303 300 296 290 290 296 299 293 287 285 282 279 276 296 300 311 319 327 330 335 342 353 3 5 2 2 5 1
152 136 89 48 36 27 19 12 7 1 354 348 335 327 319 313 310 305 297 280 275 287 291 284 286 293 287 274 275 288 291 304 316 316 323 326 338 350 355 357 358 353 352
151 147 112 68 46 36 27 17 15 11 4 358 347 336 327 319 319 329 337 328 288 273 275 279 284 291 293 276 273 268 283 294 308 309 308 309 323 332 340 349 349 341 336
152 146 109 73 51 39 29 21 22 24 14 8 4 1 12 34 46 38 29 20 19 11 332 290 277 280 283 287 286 280 273 285 299 306 308 299 300 315 324 334 336 325 313
158 144 121 85 57 42 33 27 26 28 28 23 26 38 62 74 69 41 19 21 20 12 4 347 331 305 292 295 285 283 271 269 285 295 305 294 283 292 304 319 319 309 306
159 148 131 87 59 40 34 30 27 29 33 34 48 46 73 92 59 352 336 344 356 352 334 326 322 322 323 323 305 296 271 273 275 284 293 297 273 272 282 301 299 300 299
170 163 140 94 64 38 31 28 26 29 36 39 49 55 74 121 355 38 35 18 341 328 325 310 306 308 311 313 306 296 282 263 267 280 297 303 300 266 264 277 277 283 291
181 172 151 101 58 35 29 31 27 24 27 31 37 45 37 5 332 41 20 359 356 350 338 323 313 309 313 313 302 283 266 263 262 275 272 287 294 299 265 261 261 253 268
184 176 162 112 54 36 26 25 28 27 25 26 31 45 25 352 357 332 357 2 7 2 349 339 328 327 321 316 299 284 272 265 258 255 269 276 286 288 299 259 252 238 254
189 185 177 151 61 30 21 17 21 25 28 25 22 22 23 17 9 331 349 356 0 14 3 356 337 334 331 333 322 288 268 256 264 269 258 256 275 275 297 273 253 232 239
193 192 185 175 94 20 13 8 12 16 18 22 23 18 11 6 3 343 327 334 347 359 3 360 357 342 317 321 323 295 274 264 266 272 255 251 255 270 262 279 262 229 232
198 195 191 187 198 351 360 0 2 7 9 11 12 14 9 4 349 349 329 333 337 340 1 321 339 341 317 307 302 295 279 274 274 265 255 245 247 263 265 276 265 228 218
201 201 197 196 205 289 343 350 355 358 2 3 4 3 360 354 345 337 332 329 327 334 341 334 358 342 354 321 300 289 284 275 274 272 260 238 242 242 245 256 265 229 214
207 203 201 203 214 266 315 341 349 352 355 357 353 355 352 345 337 331 321 323 329 323 323 320 326 330 324 321 306 286 275 276 278 275 263 238 245 249 233 232 254 228 209
207 206 207 211 219 245 279 330 345 348 352 350 345 345 344 337 329 326 319 302 306 315 323 317 321 317 326 324 312 294 285 265 268 275 272 244 234 235 243 241 243 227 226
208 209 211 213 220 233 255 318 336 350 349 344 338 334 335 330 324 320 315 298 290 287 288 296 303 307 313 323 312 297 291 284 261 264 270 255 236 234 250 229 236 218 226
211 211 213 213 219 223 240 286 321 343 342 338 335 331 327 322 320 316 312 303 294 288 287 297 297 300 304 313 309 301 288 290 271 261 260 258 236 238 243 237 222 217 216
213 214 215 214 219 220 233 261 299 326 335 332 329 328 323 320 317 316 314 307 299 294 287 292 298 300 297 296 315 305 296 282 274 265 258 254 241 233 238 226 214 213 216
210 213 212 217 222 225 235 258 293 313 320 324 323 322 319 317 316 313 312 309 306 300 293 292 296 297 297 295 306 307 299 288 284 267 255 238 238 230 229 227 225 219 220
207 208 215 218 221 230 242 267 286 301 311 317 317 317 316 313 310 309 309 308 307 301 297 293 292 293 290 290 296 300 305 302 286 250 254 245 234 216 224 223 224 211 221
205 206 213 217 221 231 243 261 286 302 306 310 313 314 311 308 306 305 306 305 299 293 292 291 289 292 294 293 285 290 293 300 296 280 247 241 230 207 209 216 218 223 212
201 203 206 215 223 232 246 270 288 298 302 308 309 309 306 304 305 305 303 298 291 290 291 285 285 284 287 290 287 282 285 283 288 272 236 242 233 206 206 221 225 230 230
201 197 204 216 224 236 255 272 285 295 301 304 305 305 304 304 306 308 306 301 298 307 301 292 280 277 279 277 280 285 270 266 261 252 275 242 236 214 214 225 227 229 237
198 198 208 219 226 242 257 272 283 292 299 301 301 303 301 303 307 306 299 298 297 304 294 292 289 289 272 269 268 270 269 257 255 256 258 253 232 225 224 221 225 229 236
199 203 215 222 229 243 257 273 287 297 300 300 300 300 301 304 303 300 302 301 298 298 296 295 289 282 287 281 250 255 260 253 252 248 239 240 238 231 225 218 218 225 234
203 207 218 224 234 249 268 286 296 300 299 297 296 298 306 309 308 302 297 296 297 302 299 289 286 285 284 276 277 238 242 246 242 245 240 235 233 229 217 215 216 221 225
Wind_Speed_850mb
11 5 2 6 10 14 17 18 19 20 20 20 20 21 21 22 21 20 19 19 19 17 15 19 15 13 18 21 19 21 20 21 19 17 15 17 18 19 17 11 9 8 8
9 3 3 6 11 14 17 19 21 21 21 20 20 19 19 19 19 18 16 16 19 18 18 18 19 20 18 24 24 19 17 22 22 19 15 15 17 16 16 12 10 9 8
12 8 6 8 12 16 20 22 22 21 20 19 17 16 15 14 12 11 11 10 12 20 25 26 25 24 20 20 27 26 22 19 20 19 16 14 15 16 15 13 10 10 9
16 11 8 9 13 18 22 23 24 24 24 21 19 15 10 5 7 12 15 16 15 13 12 20 26 24 22 21 23 30 30 18 20 21 18 14 14 14 14 13 9 9 7
17 13 10 9 14 19 22 26 29 30 28 24 19 16 15 16 16 14 13 14 16 16 14 13 14 15 19 22 21 25 32 23 20 18 16 17 15 14 13 12 8 8 8
18 12 9 9 14 19 25 30 33 34 33 29 18 14 7 12 19 16 14 10 14 16 15 15 13 13 15 17 15 18 25 27 21 20 18 15 17 16 12 11 8 8 8
19 13 8 9 14 17 25 30 33 35 36 36 21 14 13 11 18 18 15 16 21 24 23 22 21 19 16 15 17 17 21 26 23 19 19 15 16 16 14 10 8 6 9
21 15 10 9 12 17 21 27 33 38 41 42 37 21 7 5 28 3 15 31 34 26 22 23 21 21 19 16 15 16 20 23 29 26 18 18 19 15 16 12 10 8 9
25 17 11 7 10 13 18 26 31 35 39 40 40 27 11 10 20 18 22 26 31 26 27 22 20 16 16 15 16 17 19 22 22 27 26 19 18 15 14 15 12 11 10
30 21 14 6 5 10 16 24 29 31 33 36 38 37 30 24 12 16 27 36 43 31 33 24 19 19 15 12 10 13 15 17 21 22 28 25 21 19 11 15 15 12 12
36 27 18 9 2 7 13 20 25 28 31 32 32 32 31 27 27 14 23 34 34 31 31 33 20 20 17 15 10 11 16 20 21 23 26 29 27 22 13 14 16 14 12
42 32 22 12 4 3 9 16 22 26 29 31 32 31 29 24 22 20 29 43 39 36 22 5 31 22 18 17 19 16 19 21 23 23 27 26 27 35 15 14 14 15 15
48 37 26 16 8 3 9 15 20 23 27 30 32 33 33 30 31 27 28 35 39 37 22 14 18 19 16 25 26 27 23 23 22 22 25 24 26 38 27 14 13 16 17
46 38 28 18 9 5 8 13 18 22 25 28 30 32 32 33 33 30 26 31 43 29 30 41 24 17 43 36 26 28 30 28 26 23 22 29 23 33 38 14 13 17 22
48 40 31 21 13 9 8 11 16 21 25 28 30 32 34 35 36 35 32 23 23 33 46 29 26 35 45 41 31 26 29 30 30 29 25 25 31 27 41 16 16 17 24
53 44 35 25 17 12 8 8 13 18 24 29 33 35 35 38 40 36 33 28 26 29 43 36 46 51 53 47 35 29 31 29 31 28 28 25 31 32 39 27 19 17 24
56 46 37 29 21 17 11 7 11 18 28 35 38 40 41 41 42 39 37 34 31 31 48 56 46 45 54 45 44 34 30 27 29 31 29 28 33 37 45 35 25 23 27
57 46 39 33 27 22 15 12 13 20 32 41 44 46 46 46 48 47 42 43 40 41 44 59 51 45 41 38 41 41 32 28 26 29 30 26 28 33 41 38 32 30 28
55 48 44 37 31 28 23 17 19 26 36 45 49 50 50 51 51 50 50 50 46 42 41 47 56 44 39 38 37 37 34 28 23 26 28 23 27 29 38 41 34 31 29
55 50 45 39 36 32 24 21 26 32 41 51 57 58 57 54 53 52 53 56 52 45 42 48 51 48 42 38 37 34 28 22 24 21 23 26 27 25 34 41 37 30 26
55 49 46 43 40 35 27 27 29 37 47 58 66 67 62 57 55 55 56 56 54 44 45 51 55 51 46 39 34 31 35 33 24 20 20 20 25 26 39 42 37 33 26
58 55 48 47 45 39 33 32 36 43 55 68 74 68 63 61 59 60 55 53 55 57 57 52 56 54 47 38 35 35 35 34 20 12 17 18 21 30 35 41 39 32 28
63 56 52 53 49 39 34 38 44 50 64 74 75 68 65 63 64 61 58 60 58 49 50 55 60 58 58 50 39 35 38 31 30 30 21 21 19 28 34 38 37 36 27
62 59 58 55 45 40 40 41 48 59 72 77 71 66 68 67 62 57 56 56 51 52 54 48 49 48 52 52 46 43 39 46 46 36 33 28 23 24 37 45 41 37 30
64 59 57 50 43 42 41 45 55 67 74 72 70 68 68 64 57 49 55 58 63 57 56 50 46 46 45 41 54 43 42 39 47 45 41 34 33 29 37 45 45 39 33
57 51 52 48 41 38 42 49 62 71 72 73 71 66 64 59 51 47 57 64 68 61 52 54 56 53 48 45 40 53 48 47 45 39 49 45 42 36 30 43 47 44 39
Wind_Direction_850mb
165 157 24 2 9 6 4 0 353 350 340 332 323 314 306 303 300 296 290 290 296 299 293 287 285 282 279 276 296 300 311 319 327 330 335 342 353 3 5 2 2 5 1
152 136 89 48 36 27 19 12 7 1 354 348 335 327 319 313 310 305 297 280 275 287 291 284 286 293 287 274 275 288 291 304 316 316 323 326 338 350 355 357 358 353 352
151 147 112 68 46 36 27 17 15 11 4 358 347 336 327 319 319 329 337 328 288 273 275 279 284 291 293 276 273 268 283 294 308 309 308 309 323 332 340 349 349 341 336
152 146 109 73 51 39 29 21 22 24 14 8 4 1 12 34 46 38 29 20 19 11 332 290 277 280 283 287 286 280 273 285 299 306 308 299 300 315 324 334 336 325 313
158 144 121 85 57 42 33 27 26 28 28 23 26 38 62 74 69 41 19 21 20 12 4 347 331 305 292 295 285 283 271 269 285 295 305 294 283 292 304 319 319 309 306
159 148 131 87 59 40 34 30 27 29 33 34 48 46 73 92 59 352 336 344 356 352 334 326 322 322 323 323 305 296 271 273 275 284 293 297 273 272 282 301 299 300 299
170 163 140 94 64 38 31 28 26 29 36 39 49 55 74 121 355 38 35 18 341 328 325 310 306 308 311 313 306 296 282 263 267 280 297 303 300 266 264 277 277 283 291
181 172 151 101 58 35 29 31 27 24 27 31 37 45 37 5 332 41 20 359 356 350 338 323 313 309 313 313 302 283 266 263 262 275 272 287 294 299 265 261 261 253 268
184 176 162 112 54 36 26 25 28 27 25 26 31 45 25 352 357 332 357 2 7 2 349 339 328 327 321 316 299 284 272 265 258 255 269 276 286 288 299 259 252 238 254
189 185 177 151 61 30 21 17 21 25 28 25 22 22 23 17 9 331 349 356 0 14 3 356 337 334 331 333 322 288 268 256 264 269 258 256 275 275 297 273 253 232 239
193 192 185 175 94 20 13 8 12 16 18 22 23 18 11 6 3 343 327 334 347 359 3 360 357 342 317 321 323 295 274 264 266 272 255 251 255 270 262 279 262 229 232
198 195 191 187 198 351 360 0 2 7 9 11 12 14 9 4 349 349 329 333 337 340 1 321 339 341 317 307 302 295 279 274 274 265 255 245 247 263 265 276 265 228 218
201 201 197 196 205 289 343 350 355 358 2 3 4 3 360 354 345 337 332 329 327 334 341 334 358 342 354 321 300 289 284 275 274 272 260 238 242 242 245 256 265 229 214
207 203 201 203 214 266 315 341 349 352 355 357 353 355 352 345 337 331 321 323 329 323 323 320 326 330 324 321 306 286 275 276 278 275 263 238 245 249 233 232 254 228 209
207 206 207 211 219 245 279 330 345 348 352 350 345 345 344 337 329 326 319 302 306 315 323 317 321 317 326 324 312 294 285 265 268 275 272 244 234 235 243 241 243 227 226
208 209 211 213 220 233 255 318 336 350 349 344 338 334 335 330 324 320 315 298 290 287 288 296 303 307 313 323 312 297 291 284 261 264 270 255 236 234 250 229 236 218 226
211 211 213 213 219 223 240 286 321 343 342 338 335 331 327 322 320 316 312 303 294 288 287 297 297 300 304 313 309 301 288 290 271 261 260 258 236 238 243 237 222 217 216
213 214 215 214 219 220 233 261 299 326 335 332 329 328 323 320 317 316 314 307 299 294 287 292 298 300 297 296 315 305 296 282 274 265 258 254 241 233 238 226 214 213 216
210 213 212 217 222 225 235 258 293 313 320 324 323 322 319 317 316 313 312 309 306 300 293 292 296 297 297 295 306 307 299 288 284 267 255 238 238 230 229 227 225 219 220
207 208 215 218 221 230 242 267 286 301 311 317 317 317 316 313 310 309 309 308 307 301 297 293 292 293 290 290 296 300 305 302 286 250 254 245 234 216 224 223 224 211 221
205 206 213 217 221 231 243 261 286 302 306 310 313 314 311 308 306 305 306 305 299 293 292 291 289 292 294 293 285 290 293 300 296 280 247 241 230 207 209 216 218 223 212
201 203 206 215 223 232 246 270 288 298 302 308 309 309 306 304 305 305 303 298 291 290 291 285 285 284 287 290 287 282 285 283 288 272 236 242 233 206 206 221 225 230 230
201 197 204 216 224 236 255 272 285 295 301 304 305 305 304 304 306 308 306 301 298 307 301 292 280 277 279 277 280 285 270 266 261 252 275 242 236 214 214 225 227 229 237
198 198 208 219 226 242 257 272 283 292 299 301 301 303 301 303 307 306 299 298 297 304 294 292 289 289 272 269 268 270 269 257 255 256 258 253 232 225 224 221 225 229 236
199 203 215 222 229 243 257 273 287 297 300 300 300 300 301 304 303 300 302 301 298 298 296 295 289 282 287 281 250 255 260 253 252 248 239 240 238 231 225 218 218 225 234
203 207 218 224 234 249 268 286 296 300 299 297 296 298 306 309 308 302 297 296 297 302 299 289 286 285 284 276 277 238 242 246 242 245 240 235 233 229 217 215 216 221 225